Date,TemperatureHighF,TemperatureAvgF,TemperatureLowF,DewpointHighF,DewpointAvgF,DewpointLowF,HumidityHigh,HumidityAvg,HumidityLow,PressureMaxIn,PressureMinIn,WindSpeedMaxMPH,WindSpeedAvgMPH,GustSpeedMaxMPH,PrecipitationSumIn
2013-2-1,7,2,-4,3,-7,-11,83,68,58,30.26,30.07,21,11,23,0.00
2013-2-2,12,8,4,6,1,-4,86,72,57,30.11,29.97,15,5,16,0.00
2013-2-3,18,12,3,11,4,-4,86,72,56,29.98,29.89,25,8,28,0.00
2013-2-4,19,14,8,13,8,-2,88,77,59,29.97,29.85,6,-795,6,0.00
2013-2-5,26,18,5,21,13,-2,92,78,63,30.02,29.72,0,-983,0,0.01
2013-2-6,33,24,9,28,17,5,88,76,60,30.16,30.00,14,-634,14,0.06
2013-2-7,33,31,22,32,30,21,99,93,83,30.03,29.82,0,-999,0,0.09
2013-2-8,23,20,13,21,18,10,95,90,85,30.34,29.94,0,-999,0,0.00
2013-2-9,28,22,10,26,19,8,94,89,84,30.33,30.00,12,-824,14,0.00
2013-2-10,44,35,28,43,33,25,100,93,75,30.01,29.33,35,-682,35,0.80
2013-2-11,40,31,26,33,24,19,85,78,71,29.90,29.33,0,-999,0,0.00
2013-2-12,27,23,21,19,17,15,88,77,65,30.01,29.81,18,-821,18,0.00
2013-2-13,39,30,20,29,24,18,94,80,62,29.81,29.61,16,-597,16,0.00
2013-2-14,35,33,28,33,28,20,94,82,68,29.89,29.49,0,-999,0,0.03
2013-2-15,28,20,13,25,9,2,90,63,45,30.12,29.89,19,-639,19,0.00
2013-2-16,17,11,6,2,-1,-5,75,59,42,30.14,30.08,24,-670,26,0.00
2013-2-17,25,16,3,11,1,-6,71,53,34,30.16,29.91,12,-553,12,0.00
2013-2-18,47,35,25,41,27,11,99,73,55,29.91,29.33,20,-834,22,0.49
2013-2-19,30,14,7,30,7,-3,98,76,62,30.09,29.39,35,-725,35,0.00
2013-2-20,20,12,4,8,3,-4,71,65,57,30.32,30.09,20,-552,21,0.00
2013-2-21,26,20,12,23,15,6,91,82,69,30.36,30.00,21,-831,22,0.00
2013-2-22,30,27,24,28,25,20,96,93,82,30.00,29.70,13,-768,14,0.01
2013-2-23,28,24,20,24,19,15,91,80,66,29.86,29.75,20,-674,20,0.00
2013-2-24,37,27,18,23,19,14,86,72,53,30.07,29.86,11,-547,12,0.05
2013-2-25,41,31,19,27,22,16,90,72,49,30.10,29.95,11,-555,12,0.00
2013-2-26,33,32,29,32,28,24,100,86,69,29.95,29.51,29,-787,29,0.00
2013-2-27,32,31,28,32,31,28,100,100,99,29.66,29.48,19,-700,20,0.15
2013-2-28,31,29,23,31,27,20,100,94,84,30.03,29.66,23,-680,23,0.01